This is the latest recevied weather packets stored in our database for station/object K9MJM-1. If no packets are shown the sender has not sent any weather packets the latest 1 day(s).
| Time | Temp. | Humidity | Pressure | Rain* | Wind** | Luminosity | Snow |
|---|---|---|---|---|---|---|---|
| 1778099440 | 20° C | 68% | 1015.9 hPa | 0 mm | 0 m/s | - | - |
| 1778099199 | 20° C | 68% | 1015.9 hPa | 0 mm | 0 m/s | - | - |
| 1778098899 | 20° C | 68% | 1015.9 hPa | 0 mm | 0.45 m/s, 93° | - | - |
| 1778098299 | 20.56° C | 69% | 1016.2 hPa | 0 mm | 0 m/s | - | - |
| 1778097759 | 20.56° C | 69% | 1016.3 hPa | 0 mm | 0 m/s | - | - |
| 1778097459 | 20.56° C | 67% | 1016.7 hPa | 0 mm | 2.24 m/s, 122° | - | - |
| 1778096799 | 20.56° C | 67% | 1016.5 hPa | 0 mm | 1.34 m/s, 71° | - | - |
| 1778096319 | 20.56° C | 68% | 1016.6 hPa | 0 mm | 0 m/s | - | - |
| 1778096199 | 20.56° C | 68% | 1016.6 hPa | 0 mm | 0 m/s | - | - |
| 1778095899 | 20.56° C | 66% | 1016.8 hPa | 0 mm | 0.89 m/s, 81° | - | - |
| 1778095119 | 20° C | 66% | 1016.4 hPa | 0 mm | 0 m/s | - | - |
| 1778094519 | 20.56° C | 68% | 1016.5 hPa | 0 mm | 0.89 m/s, 92° | - | - |
| 1778094459 | 20.56° C | 68% | 1016.5 hPa | 0 mm | 0.89 m/s, 92° | - | - |
| 1778093979 | 20.56° C | 69% | 1016.5 hPa | 0 mm | 0.45 m/s, 94° | - | - |
| 1778093859 | 20.56° C | 69% | 1016.5 hPa | 0 mm | 0.45 m/s, 94° | - | - |
| 1778093439 | 20.56° C | 69% | 1016.2 hPa | 0 mm | 0 m/s | - | - |
| 1778093259 | 20.56° C | 69% | 1016.2 hPa | 0 mm | 0 m/s | - | - |
| 1778092719 | 20.56° C | 68% | 1016.4 hPa | 0 mm | 0 m/s | - | - |
| 1778092539 | 20.56° C | 69% | 1016.5 hPa | 0 mm | 0.45 m/s, 88° | - | - |
| 1778092299 | 20.56° C | 69% | 1016.5 hPa | 0 mm | 0.45 m/s, 88° | - | - |
| 1778092059 | 20° C | 69% | 1016.3 hPa | 0 mm | 1.34 m/s, 67° | - | - |
| 1778091159 | 18.89° C | 78% | 1016.3 hPa | 0 mm | 0 m/s | - | - |
| 1778090799 | 17.78° C | 79% | 1016.3 hPa | 0 mm | 0 m/s | - | - |
| 1778090379 | 17.78° C | 80% | 1016.6 hPa | 0 mm | 0 m/s | - | - |
| 1778090259 | 17.78° C | 80% | 1016.6 hPa | 0 mm | 0 m/s | - | - |
* Rain latest hour (hover to see other rain measurements)
** Current wind speed in m/s (hover to see current wind gust speed)